Location: Lake Sonoma
(38.7200°N, 123.0564°W)
Time: 05:00:17
(UTC-07:00)

Daily predictions for brighter satellites

Satellite Brightness Start Highest point End
(mag) Time Altitude Azimuth Time Altitude Azimuth Time Altitude Azimuth
SL-16 R/B 4.0 03:20:39 31° N 03:20:39 31° N 03:23:49 10° N
ADEOS Rocket 4.3 03:28:59 10° NNE 03:32:02 32° NE 03:32:02 32° NE
CENTAUR R/B 4.0 03:44:16 28° NNW 03:44:16 28° NNW 03:48:48 10° NNE
Resurs 1-4 Rocket 3.9 03:38:33 10° NNE 03:40:53 27° NNE 03:40:53 27° NNE
Cosmos 2322 Rocket 4.0 03:53:16 23° N 03:53:16 23° N 03:55:39 10° N
CZ-2D R/B 3.6 03:48:03 10° NNE 03:50:56 33° N 03:50:56 33° N
SL-16 R/B 3.9 04:00:03 24° NNW 04:00:03 24° NNW 04:02:39 10° N
Cosmos 2219 Rocket 4.0 03:59:35 22° ESE 04:00:33 23° E 04:04:51 10° NE
ADEOS II 4.4 04:00:03 10° NE 04:03:37 18° E 04:06:33 12° SE
Cosmos 2184 Rocket 4.3 03:58:05 10° N 04:04:14 60° E 04:04:34 59° E
Cosmos 1844 Rocket 4.3 04:02:06 10° N 04:07:03 31° ENE 04:11:56 10° ESE
COSMOS 2428 3.3 04:11:13 52° E 04:11:13 52° E 04:16:20 10° NNE
Cosmos 2360 Rocket 3.0 04:21:07 43° NNW 04:21:07 43° NNW 04:25:09 10° NNE
ARIANE 5 R/B 4.1 04:22:32 10° N 04:24:54 25° NNW 04:24:54 25° NNW
MOS 1-B 4.3 04:25:20 10° NNE 04:31:11 76° ESE 04:31:45 69° SSE
Cosmos 2237 Rocket 4.1 04:27:56 14° SSE 04:31:34 25° ESE 04:36:05 10° NE
ATLAS 5 CENTAUR R/B 4.2 04:26:35 10° NNW 04:31:48 30° NE 04:37:24 10° ESE
Cosmos 1570 Rocket 4.0 04:37:49 74° N 04:37:49 74° N 04:42:35 10° NNE
Cosmos 2154 Rocket 4.5 04:32:25 10° N 04:38:33 59° E 04:44:39 10° SSE
Meteor 2-13 Rocket 4.3 04:33:28 10° N 04:39:40 89° WSW 04:41:26 50° S
Cosmos 1743 3.7 04:42:07 10° N 04:45:43 45° ENE 04:45:43 45° ENE
Cosmos 2327 Rocket 4.3 04:41:08 10° NNW 04:47:19 65° W 04:47:36 64° WSW
Spot 3 4.5 04:44:29 10° N 04:49:48 70° WNW 04:49:50 70° WNW
Nadezhda 1 Rocket 3.8 04:51:29 61° SW 04:52:18 69° W 04:58:22 10° N
Cosmos 1610 Rocket 4.4 04:48:51 10° N 04:55:09 77° W 04:59:09 24° S
OAO 3 Copernicus 4.5 04:56:35 56° S 04:56:35 56° S 05:01:18 10° ESE
Cosmos 2333 Rocket 2.7 04:55:15 30° S 04:57:59 58° ESE 05:03:37 10° NNE
GPS 2-04 Rocket1 4.1 04:59:57 29° SE 04:59:57 29° SE 05:02:49 10° E
PAYLOAD B 4.4 04:57:48 10° NNE 05:03:26 73° ESE 05:07:04 23° S
EO 1 Del DPAF 3.7 05:03:57 10° SSE 05:07:44 61° ENE 05:11:34 10° N
Cosmos 2074 Rocket 4.5 05:04:44 10° NNW 05:10:08 38° W 05:10:08 38° W
Tiangong 2 3.1 05:14:46 20° SE 05:14:46 20° SE 05:15:57 10° SE
Gblst 52 Del rocket 4.2 05:10:49 35° WNW 05:13:14 64° SW 05:19:30 10° SE
IRS-1C Rocket 4.0 05:08:12 10° NNE 05:13:30 86° E 05:16:45 24° SSW
Okean O Rocket 1.5 05:10:09 10° N 05:14:37 75° WNW 05:15:42 50° SW
NOSS 0 Rocket 4.1 05:10:55 22° S 05:15:01 73° ESE 05:21:10 10° NNE
Hubble Space Telescope 2.9 05:16:15 15° SSE 05:16:15 15° SSE 05:18:39 10° SE
ERS-2 3.9 05:14:26 10° NE 05:17:45 31° E 05:21:03 10° SSE
ADEOS Rocket 4.2 05:15:41 10° NNW 05:19:00 19° NW 05:19:00 19° NW
MTI 3.7 05:21:10 40° SSE 05:22:14 86° ENE 05:25:33 10° N
Cosmos 1844 3.6 05:16:46 10° NNW 05:22:34 83° WSW 05:28:14 10° SSE
Cosmos 2341 Rocket 3.9 05:16:24 10° N 05:22:39 84° W 05:28:51 10° S
Resurs 1-4 Rocket 4.1 05:20:49 10° NW 05:21:59 12° NW 05:21:59 12° NW
Aureole 2 Rocket 2.8 05:21:50 36° S 05:23:02 62° ESE 05:26:21 10° NNE
Cosmos 1814 Rocket 4.2 05:20:45 16° S 05:24:51 71° ESE 05:29:59 10° NNE
CZ-4B R/B 2.8 05:22:28 10° N 05:26:01 50° WNW 05:26:02 50° WNW
DELTA 2 R/B (1) 3.5 05:25:34 33° W 05:28:07 81° N 05:33:42 10° E
SL-16 R/B 3.9 05:24:38 10° SSE 05:29:34 32° ESE 05:34:32 10° NE
SL-8 R/B 4.5 05:26:20 15° NW 05:30:06 50° NNE 05:34:45 10° E
CZ-4B R/B 3.2 05:25:20 10° N 05:30:57 72° WNW 05:35:23 16° SSW
Okean-O 3.8 05:27:59 10° NNE 05:32:14 44° E 05:36:28 10° S
Cosmos 2298 Rocket 4.1 05:27:05 10° NNW 05:32:27 83° ENE 05:37:47 10° SSE
CZ-2D R/B 4.2 05:31:18 10° NW 05:32:16 11° NW 05:32:16 11° NW
CZ-4B DEB 4.2 05:28:51 10° N 05:34:22 67° WNW 05:38:53 16° SSW
CZ-2C R/B 3.6 05:32:52 10° S 05:37:25 70° WSW 05:41:56 10° NNW
USA 215 3.3 05:32:15 10° SE 05:38:49 86° NE 05:45:24 10° NW
Cosmos 1980 3.6 05:34:38 18° SSW 05:38:54 80° WNW 05:44:34 10° NNE
GENESIS II 4.4 05:39:37 34° WSW 05:41:07 58° WNW 05:45:09 10° NNE
ADEOS II 2.3 05:38:31 10° N 05:43:36 51° WNW 05:47:30 17° SW
Meteor 2-19 Rocket 4.3 05:37:34 10° NNW 05:43:37 68° W 05:49:36 10° S
SAR-Lupe-3 4.4 05:40:25 10° S 05:43:58 69° WSW 05:47:33 10° NNW
Cosmos 2219 Rocket 2.5 05:41:20 25° WSW 05:44:08 45° WNW 05:49:31 10° N
Cosmos 1844 Rocket 3.2 05:45:55 10° NW 05:50:54 34° WSW 05:55:51 10° SSW
PSLV R/B 4.0 05:47:18 10° N 05:51:22 40° WNW 05:54:07 19° SW
USA 229 DEB 4.0 05:47:36 21° WSW 05:52:04 49° NW 05:58:48 10° NNE
USA 229 4.0 05:47:41 21° WSW 05:52:10 49° NW 05:58:54 10° NNE
Cosmos 2285 Rocket 4.1 05:47:00 13° SW 05:52:36 57° WNW 05:58:57 10° N
Cosmos 1295 Rocket 4.5 05:48:07 10° NNW 05:54:12 58° W 06:00:10 10° S
Cosmos 1238 Rocket 4.3 05:55:42 13° NW 05:55:42 13° NW 05:56:20 10° NW
Cosmos 1959 Rocket 4.5 05:48:36 10° N 05:54:45 88° E 06:00:54 10° S
Meteor 2-9 Rocket 4.1 05:49:21 10° NNW 05:54:55 62° W 06:00:17 10° S
IRAS Rocket 4.5 05:49:36 10° N 05:54:57 50° WNW 06:00:19 10° SW
COSMOS 2428 4.0 05:53:15 18° W 05:55:24 22° NW 05:59:48 10° N
Cosmos 2058 Rocket 3.7 05:56:03 10° N 06:00:30 60° E 06:04:52 10° SSE
OTV 4 1.2 06:01:12 21° SW 06:02:36 37° SSE 06:05:12 10° E
NOSS 3-1 (A) 3.6 05:58:33 10° SSW 06:04:13 70° ESE 06:10:34 10° NE
Cosmos 1867 3.6 05:59:19 10° NW 06:04:38 55° WSW 06:09:53 10° SSE
Cosmos 990 Rocket 3.9 05:59:40 10° NNW 06:04:51 76° WSW 06:09:58 10° S
Cosmos 1441 Rocket 3.5 06:01:37 10° S 06:05:33 76° E 06:09:34 10° NNE
NOSS 3-1 (C) 3.3 05:59:53 10° SW 06:05:37 84° WNW 06:12:03 10° NNE
CZ-4C R/B 4.4 05:59:10 10° NNW 06:05:45 38° NE 06:12:56 10° ESE
EXPRESS MD2 3.2 06:01:39 15° SW 06:05:59 89° SE 06:08:53 10° NE
Cosmos 1515 3.8 06:02:34 10° S 06:06:25 79° E 06:10:17 10° N
Cosmos 1666 3.8 06:05:21 10° NW 06:08:31 24° W 06:11:42 10° SW
Meteor 1-23 Rocket 4.5 06:03:20 10° SSW 06:08:56 49° WNW 06:14:32 10° N
Cosmos 1437 3.3 06:06:49 11° SW 06:09:40 37° WNW 06:12:45 10° N
Cosmos 2366 rocket 4.0 06:04:12 10° N 06:10:34 79° W 06:16:54 10° S
Cosmos 2278 Rocket 2.2 06:06:44 10° NNW 06:12:18 58° WSW 06:17:49 10° S
Cosmos 1606 Rocket 3.7 06:09:15 10° NNW 06:13:39 56° W 06:18:01 10° S
Cosmos 405 Rocket 3.4 06:10:55 10° SW 06:14:39 36° WNW 06:18:22 10° N
Cosmos 2237 Rocket 2.6 06:09:56 10° SW 06:15:19 43° WNW 06:20:45 10° N
ATLAS 5 CENTAUR R/B 2.6 06:10:51 10° NW 06:16:48 54° WSW 06:23:11 10° SSE
Thor Agena Rocket 3.4 06:12:31 10° SSE 06:17:35 82° WSW 06:22:38 10° NNW
Cosmos 1898 Rocket 4.2 06:14:01 10° NW 06:18:31 31° W 06:23:01 10° SSW
Cosmos 2150 Rocket 4.4 06:14:00 10° NNW 06:18:59 42° WSW 06:24:00 10° S
Cosmos 371 Rocket 3.5 06:21:55 10° SSW 06:26:40 54° WNW 06:31:28 10° N
Cosmos 1125 Rocket 4.3 06:21:59 10° N 06:27:12 57° ENE 06:32:25 10° SSE
Meteor 2-21 4.5 06:22:19 10° NNW 06:28:30 69° W 06:34:38 10° S
Cosmos 2228 3.0 06:25:37 10° N 06:29:59 77° W 06:34:19 10° S
Cosmos 2297 3.8 06:24:20 10° NNW 06:30:06 89° ENE 06:35:49 10° SSE
Cosmos 332 Rocket 4.4 06:26:59 10° SW 06:31:32 37° WNW 06:36:04 10° N
Timation 1 Rocket 4.4 06:27:07 10° NNW 06:33:01 62° WSW 06:38:53 10° S
Cosmos 1763 Rocket 4.1 06:31:19 10° SW 06:35:57 35° WNW 06:40:39 10° N
Nadezhda 3 Rocket 4.1 06:30:25 10° S 06:36:34 86° E 06:42:46 10° N
GPS 2-04 Rocket1 3.0 06:34:55 10° WSW 06:38:50 53° S 06:42:32 10° E
Meteor 1-31 Rocket 3.9 06:36:58 10° NNW 06:40:04 24° WNW 06:43:10 10° SW
